This is the latest recevied weather packets stored in our database for station/object LRBM. If no packets are shown the sender has not sent any weather packets the latest 10 day(s).
| Time | Temp. | Humidity | Pressure | Rain* | Wind** | Luminosity | Snow |
|---|---|---|---|---|---|---|---|
| 1777271616 | 7.78° C | 46% | 1025 hPa | - | - | - | - |
| 1777270716 | 6.11° C | 53% | 1025 hPa | - | - | - | - |
| 1777269816 | 6.11° C | 53% | 1025 hPa | - | - | - | - |
| 1777268912 | 3.89° C | 61% | 1025 hPa | - | - | - | - |
| 1777268016 | 3.89° C | 61% | 1025 hPa | - | - | - | - |
| 1777267115 | 2.78° C | 65% | 1025 hPa | - | - | - | - |
| 1777266239 | 2.78° C | 65% | 1025 hPa | - | - | - | - |
| 1777265316 | 2.22° C | 75% | 1025 hPa | - | - | - | - |
| 1777264495 | 2.22° C | 75% | 1025 hPa | - | - | - | - |
| 1777263515 | 1.11° C | 65% | 1025 hPa | - | - | - | - |
| 1777262615 | 1.11° C | 65% | 1025 hPa | - | - | - | - |
| 1777261715 | 1.11° C | 65% | 1024 hPa | - | - | - | - |
| 1777260853 | 1.11° C | 65% | 1024 hPa | - | - | - | - |
| 1777259916 | 0° C | 75% | 1024 hPa | - | - | - | - |
| 1777259016 | 0° C | 75% | 1024 hPa | - | - | - | - |
| 1777258116 | 1.11° C | 70% | 1024 hPa | - | - | - | - |
| 1777257216 | 1.11° C | 70% | 1024 hPa | - | - | - | - |
| 1777256315 | 1.11° C | 65% | 1024 hPa | - | - | - | - |
| 1777255415 | 1.11° C | 65% | 1024 hPa | - | - | - | - |
| 1777254516 | 1.11° C | 70% | 1024 hPa | - | - | - | - |
| 1777253615 | 1.11° C | 70% | 1024 hPa | - | - | - | - |
| 1777252713 | 1.11° C | 70% | 1024 hPa | - | - | - | - |
| 1777251817 | 1.11° C | 70% | 1024 hPa | - | - | - | - |
| 1777250916 | 0° C | 75% | 1024 hPa | - | - | - | - |
| 1777250016 | 0° C | 75% | 1024 hPa | - | - | - | - |
* Rain since midnight (hover to see other rain measurements)
** Current wind speed in m/s (hover to see current wind gust speed)